Regional Weather Roundup
Issued by NWS

Home | Current Version | Previous Version | Text Only | Print | Product List | Glossary Off
Versions: 1 2 3 4 5 6 7 8 9 10 11 12 13 14 15 16 17 18 19 20 21 22 23 24 25 26 27 28 29 30 31 32 33 34 35 36 37 38 39 40 41 42 43 44 45 46 47 48 49 50

000
ASUS45 KBOI 180310
RWRID
WEATHER ROUNDUP FOR IDAHO
NATIONAL WEATHER SERVICE BOISE ID
900 PM MDT WED SEP 17 2014

NOTE: "FAIR" INDICATES FEW OR NO CLOUDS BELOW 12000 FEET
WITH NO SIGNIFICANT WEATHER AND/OR OBSTRUCTIONS TO VISIBILITY

IDZ012-014-180400-
SOUTHWEST IDAHO


CITY           SKY/WX    TMP DP  RH WIND       PRES   REMARKS
BOISE          PTCLDY    79  40  24 CALM      29.70S
CALDWELL       PTCLDY    73  50  43 SW5       29.70S
MOUNTAIN HOME  CLOUDY    79  41  25 W8        29.71S
$$

IDZ016-017-180400-
SOUTHCENTRAL IDAHO


CITY           SKY/WX    TMP DP  RH WIND       PRES   REMARKS
BURLEY         MOCLDY    68  52  56 SW6       29.82R
JEROME         PTCLDY    70  46  42 E6        29.81S
TWIN FALLS     MOCLDY    73  48  41 SE7       29.81F
$$

IDZ019>023-180400-
SOUTHEAST IDAHO


CITY           SKY/WX    TMP DP  RH WIND       PRES   REMARKS
IDAHO FALLS    CLEAR     64  48  56 CALM      29.90S
POCATELLO      CLEAR     73  39  29 S9        29.87R
REXBURG        PTCLDY    68  43  40 NE7       29.92R
$$

IDZ006-010-011-018-031-032-180400-
CENTRAL IDAHO MOUNTAINS


CITY           SKY/WX    TMP DP  RH WIND       PRES   REMARKS
MCCALL         CLOUDY    64  38  38 CALM      29.87F
HAILEY         PTCLDY    66  43  42 W7        29.94R
STANLEY          N/A     59  36  42 S3        30.02R
SALMON         PTCLDY    57  46  67 SE3       29.86S
CHALLIS        PTCLDY    63  41  44 SE3       29.91R
$$

IDZ002-004-006-007-026-180400-
NORTHERN IDAHO


CITY           SKY/WX    TMP DP  RH WIND       PRES   REMARKS
LEWISTON       MOCLDY    75  45  34 SE5       29.64S
LOWELL           N/A     61  58  90 CALM      29.72R
COEUR D`ALENE  MOCLDY    70  45  40 NE3       29.70S
MULLAN PASS    CLOUDY    63  42  46 VRB3      29.94S
$$


USA.gov is the U.S. government's official web portal to all federal, state and local government web resources and services.